[[{"header":{"parameterUnit":"m.s-1","parameterCategory":1,"la1":30.2991,"la2":30.254,"lo1":-89.0895,"lo2":-89.0444,"dy":0.0017,"dx":0.0017,"nx":28,"ny":28,"refTime":"2025-07-16T03:00:00:Z","depth":0,"parameterNumber":2,"parameterNumberName":"U-component_of_WINDS"},"data":[0,0,0,0,0,0,0,0,0,0,0,0,0,0,0,0,0,0,0,0,0,0,0,0,0,0,0,0,0,0,0,0,0,0,0,0,0,0,0,0,0,0,0,0,0,0,0,0,0,0,0,0,0,0,0,0,0,0,-1.2135,-1.2136,0,-1.23,-1.2302,-1.2303,-1.2387,-1.2387,-1.2387,-1.2388,-1.2556,-1.2561,-1.2565,0,0,0,0,0,0,0,0,0,0,0,0,0,-1.1892,-1.1896,-1.2135,-1.2137,-1.2139,-1.2299,-1.2302,-1.2304,-1.2387,-1.2387,-1.2387,-1.2388,-1.2555,-1.256,-1.2565,0,0,0,0,0,0,0,0,0,0,0,0,0,-1.2021,-1.1897,-1.2134,-1.22,-1.2207,-1.2299,-1.2302,-1.2305,-1.2387,-1.2387,-1.2388,-1.2388,-1.2553,-1.256,-1.2566,-1.2605,0,0,-1.2586,-1.2589,0,0,0,0,0,0,0,0,-1.2013,-1.203,-1.2188,-1.2195,-1.2204,-1.2323,-1.2278,-1.2405,-1.2387,-1.2319,-1.2388,-1.2388,-1.2479,-1.2491,-1.2522,-1.2613,-1.262,-1.2587,-1.2591,-1.2594,-1.2596,0,0,0,0,0,0,0,-1.2004,-1.2023,-1.22,-1.219,-1.22,-1.2221,-1.2239,-1.2302,-1.2396,-1.2325,-1.2331,-1.235,-1.2483,-1.2515,-1.2527,-1.2623,-1.2587,-1.2593,-1.2597,-1.2599,-1.2754,-1.2754,0,0,0,0,0,0,-1.1985,-1.2015,-1.2195,-1.2205,-1.2107,-1.2225,-1.2246,-1.2285,-1.2396,-1.2413,-1.2349,-1.2353,-1.2504,-1.2519,-1.2533,-1.2586,-1.2594,-1.26,-1.2604,-1.2754,-1.2754,-1.2755,0,0,0,0,0,0,-1.1979,-1.2,-1.2188,-1.2112,-1.2137,-1.2229,-1.2272,-1.2288,-1.2321,-1.2414,-1.2431,-1.2366,-1.2505,-1.2524,-1.2587,-1.2593,-1.2603,-1.2609,-1.2754,-1.2754,-1.2754,-1.2693,0,0,0,0,0,0,-1.1972,-1.1998,-1.2013,-1.2112,-1.2141,-1.2239,-1.2273,-1.2291,-1.2332,-1.2338,-1.2434,-1.245,-1.2506,-1.2576,-1.2593,-1.2603,-1.2614,-1.2754,-1.2754,-1.2754,-1.2694,-1.2691,-1.2687,0,0,0,0,0,-1.1963,-1.1989,-1.2014,-1.2035,-1.2163,-1.2239,-1.2256,-1.232,-1.2332,-1.2349,-1.2409,-1.2447,-1.259,-1.2582,-1.2602,-1.2613,-1.2754,-1.2754,-1.2754,-1.2696,-1.2691,-1.2687,0,0,0,0,0,0,-1.1889,-1.2003,-1.2032,-1.2091,-1.2154,-1.2253,-1.2276,-1.2313,-1.2375,-1.2378,-1.2456,-1.2477,-1.2532,-1.2579,-1.2569,-1.2657,-1.2676,-1.268,-1.2624,-1.2621,-1.2617,-1.2605,-1.262,0,0,0,0,0,-1.188,-1.1932,-1.2029,-1.2072,-1.2102,-1.2183,-1.2219,-1.2263,-1.2332,-1.236,-1.2425,-1.249,-1.2551,-1.2588,-1.2648,-1.2702,-1.2724,-1.2719,-1.2716,-1.2712,-1.2715,-1.2747,-1.2746,-1.2755,-1.2755,-1.2755,0,0,-1.1861,-1.193,-1.1958,-1.2059,-1.2113,-1.2166,-1.2206,-1.226,-1.2299,-1.2368,-1.2432,-1.2481,-1.256,-1.2618,-1.2647,-1.2659,-1.2717,-1.2713,-1.2709,-1.2714,-1.2747,-1.2746,-1.2745,-1.2756,-1.2756,-1.2756,0,0,-1.1854,-1.1911,-1.1953,-1.2007,-1.2089,-1.2143,-1.2153,-1.2246,-1.2282,-1.2347,-1.2399,-1.2448,-1.2549,-1.2603,-1.2644,-1.2656,-1.2694,-1.2674,-1.2655,-1.2686,-1.2685,-1.2685,-1.2689,-1.269,-1.2676,-1.2676,-1.2676,0,-1.182,-1.1901,-1.1969,-1.2021,-1.2063,-1.2128,-1.2171,-1.222,-1.2317,-1.2345,-1.2357,-1.2486,-1.2543,-1.2615,-1.2618,-1.2649,-1.2663,-1.2663,-1.2679,-1.268,-1.2681,-1.2686,-1.2688,-1.2673,-1.2674,-1.2674,-1.2674,0,-1.1856,-1.1911,-1.1935,-1.2028,-1.2073,-1.212,-1.2195,-1.2233,-1.2273,-1.2325,-1.239,-1.2462,-1.2537,-1.2558,-1.2597,-1.2635,-1.264,-1.2665,-1.2685,-1.2676,-1.2682,-1.2685,-1.2669,-1.267,-1.2671,-1.2672,0,0,-1.1807,-1.1936,-1.1944,-1.1987,-1.2082,-1.2127,-1.2176,-1.2251,-1.2281,-1.2347,-1.239,-1.2474,-1.2498,-1.2544,-1.259,-1.2616,-1.2622,-1.2638,-1.2641,-1.2633,-1.2669,-1.265,-1.2651,-1.2647,-1.2648,-1.2649,-1.2662,0,-1.1813,-1.1905,-1.1967,-1.2035,-1.2087,-1.2149,-1.2192,-1.2256,-1.2306,-1.2358,-1.2413,-1.2472,-1.2498,-1.2526,-1.2555,-1.2615,-1.263,-1.2615,-1.2689,-1.2691,-1.2667,-1.2654,-1.2635,-1.2644,-1.2665,-1.2666,-1.2666,0,-1.1832,-1.1895,-1.1967,-1.2058,-1.2082,-1.212,-1.2193,-1.2241,-1.2314,-1.2349,-1.24,-1.2448,-1.2503,-1.2518,-1.2595,-1.2583,-1.2617,-1.2651,-1.2653,-1.2663,-1.2677,-1.2663,-1.2648,-1.265,-1.267,-1.267,-1.267,0,-1.1789,-1.1892,-1.1949,-1.1984,-1.209,-1.2115,-1.2161,-1.2234,-1.2274,-1.2338,-1.2366,-1.2435,-1.2473,-1.2526,-1.259,-1.2595,-1.2661,-1.2681,-1.2692,-1.269,-1.2703,-1.2701,-1.2693,-1.2724,-1.2724,-1.2724,-1.2724,0,-1.1789,-1.1831,-1.1931,-1.1966,-1.2014,-1.2086,-1.2133,-1.2183,-1.2248,-1.2294,-1.2352,-1.2394,-1.2477,-1.2529,-1.258,-1.2636,-1.2653,-1.2683,-1.2696,-1.2678,-1.2674,-1.2701,-1.2702,-1.2724,-1.2724,-1.2724,-1.2724,0,-1.1749,-1.1817,-1.1883,-1.1979,-1.2004,-1.2035,-1.2117,-1.2154,-1.2207,-1.2264,-1.2282,-1.2366,-1.243,-1.25,-1.2588,-1.2623,-1.2676,-1.2694,-1.2651,-1.2658,-1.2665,-1.2663,-1.2674,-1.2679,-1.2706,-1.2705,-1.2705,0,-1.1744,-1.1778,-1.1877,-1.1912,-1.1956,-1.2011,-1.2053,-1.2125,-1.2166,-1.2252,-1.2278,-1.2347,-1.2406,-1.2505,-1.2574,-1.2642,-1.2663,-1.2662,-1.2673,-1.2654,-1.2663,-1.266,-1.2664,-1.2658,-1.2657,-1.2657,-1.2656,0,-1.1729,-1.1761,-1.1819,-1.1889,-1.1937,-1.1996,-1.2057,-1.2082,-1.2166,-1.2209,-1.2276,-1.2321,-1.2411,-1.2479,-1.2555,-1.2602,-1.2643,-1.2652,-1.2658,-1.264,-1.2613,-1.2628,-1.2641,-1.2652,-1.2652,-1.2653,-1.2653,-1.2653,-1.1707,-1.1739,-1.1814,-1.1877,-1.193,-1.1986,-1.2024,-1.2083,-1.2139,-1.2218,-1.2257,-1.2324,-1.2396,-1.2503,-1.2549,-1.2602,-1.2615,-1.2623,-1.2625,-1.2626,-1.2622,-1.2605,-1.2616,-1.2616,-1.2617,-1.2617,-1.2617,0,-1.1694,-1.1745,-1.1802,-1.1885,-1.1935,-1.1969,-1.2038,-1.2077,-1.2135,-1.2199,-1.2256,-1.2333,-1.2399,-1.2473,-1.2543,-1.2571,-1.2592,-1.2588,-1.2586,-1.2597,-1.2606,-1.2594,-1.257,-1.257,-1.257,-1.257,-1.257,-1.257,-1.1693,-1.1751,-1.1792,-1.1876,-1.1928,-1.1993,-1.2029,-1.2081,-1.2133,-1.2216,-1.2271,-1.2319,-1.2387,-1.2463,-1.2526,-1.2546,-1.2569,-1.2559,-1.2584,-1.2592,-1.2596,-1.2599,-1.2588,-1.2563,-1.2563,-1.2571,-1.2571,-1.2571]},{"header":{"parameterUnit":"m.s-1","parameterCategory":1,"la1":30.2991,"la2":30.254,"lo1":-89.0895,"lo2":-89.0444,"dy":0.0017,"dx":0.0017,"nx":28,"ny":28,"refTime":"2025-07-16T03:00:00:Z","depth":0,"parameterNumber":3,"parameterNumberName":"V-component_of_WINDS"},"data":[0,0,0,0,0,0,0,0,0,0,0,0,0,0,0,0,0,0,0,0,0,0,0,0,0,0,0,0,0,0,0,0,0,0,0,0,0,0,0,0,0,0,0,0,0,0,0,0,0,0,0,0,0,0,0,0,0,0,0.672,0.6721,0,0.6831,0.6832,0.6834,0.6866,0.6866,0.6865,0.6865,0.698,0.6984,0.6987,0,0,0,0,0,0,0,0,0,0,0,0,0,0.6538,0.6541,0.672,0.6721,0.6723,0.6831,0.6833,0.6834,0.6866,0.6866,0.6865,0.6864,0.6979,0.6983,0.6988,0,0,0,0,0,0,0,0,0,0,0,0,0,0.663,0.6542,0.672,0.6752,0.6756,0.6831,0.6833,0.6834,0.6867,0.6866,0.6865,0.6864,0.6978,0.6983,0.6988,0.704,0,0,0.7005,0.7007,0,0,0,0,0,0,0,0,0.6624,0.6636,0.6746,0.675,0.6754,0.6834,0.6811,0.6903,0.6867,0.6825,0.6865,0.6864,0.6932,0.6941,0.6964,0.7045,0.705,0.7005,0.7009,0.7011,0.7013,0,0,0,0,0,0,0,0.6618,0.6632,0.6764,0.6747,0.6753,0.6761,0.6774,0.6828,0.6882,0.6828,0.6831,0.6843,0.6935,0.6959,0.6967,0.7052,0.7005,0.701,0.7013,0.7016,0.7181,0.7182,0,0,0,0,0,0,0.6606,0.6626,0.676,0.6767,0.6686,0.6765,0.6779,0.6809,0.6882,0.6892,0.6844,0.6845,0.695,0.6961,0.6971,0.7037,0.7011,0.7016,0.7019,0.718,0.7182,0.7183,0,0,0,0,0,0,0.6602,0.6617,0.6756,0.6698,0.6716,0.677,0.6803,0.6812,0.6836,0.6894,0.6904,0.6859,0.695,0.6964,0.7023,0.7041,0.7019,0.7023,0.7179,0.7181,0.7182,0.7168,0,0,0,0,0,0,0.6596,0.6616,0.6635,0.6698,0.6719,0.6804,0.6804,0.6815,0.6846,0.6847,0.691,0.692,0.695,0.7014,0.7028,0.7049,0.7028,0.7177,0.718,0.7182,0.7167,0.7169,0.7171,0,0,0,0,0,0.659,0.6627,0.6636,0.6652,0.6744,0.6805,0.6817,0.6851,0.6847,0.6867,0.6904,0.6918,0.7037,0.702,0.7036,0.7058,0.7176,0.7179,0.7182,0.7166,0.7168,0.7171,0,0,0,0,0,0,0.6566,0.6636,0.6646,0.6705,0.6749,0.6811,0.6837,0.6853,0.6899,0.6899,0.6939,0.6953,0.7009,0.704,0.7019,0.7112,0.7107,0.7113,0.709,0.7093,0.7095,0.7086,0.7032,0,0,0,0,0,0.6567,0.661,0.6669,0.6715,0.6737,0.6783,0.6811,0.6833,0.6881,0.69,0.6941,0.6987,0.7035,0.7066,0.7113,0.7172,0.7186,0.7195,0.7197,0.7198,0.7203,0.7237,0.7241,0.7191,0.7191,0.7191,0,0,0.657,0.6614,0.6639,0.6711,0.6748,0.6793,0.6799,0.6845,0.6879,0.6907,0.6965,0.6997,0.7051,0.711,0.7138,0.7137,0.722,0.7201,0.7202,0.7206,0.724,0.7245,0.7249,0.7193,0.7193,0.7192,0,0,0.66,0.6637,0.6679,0.6716,0.6771,0.6802,0.6812,0.6872,0.6894,0.6953,0.6975,0.7016,0.7098,0.7136,0.7166,0.721,0.7225,0.7225,0.7234,0.7267,0.7271,0.7275,0.7291,0.7296,0.7229,0.7229,0.7229,0,0.6597,0.6664,0.6699,0.6745,0.6777,0.6804,0.6848,0.6882,0.695,0.6972,0.6969,0.7073,0.7111,0.718,0.7191,0.7214,0.7228,0.7217,0.7267,0.7272,0.7276,0.7292,0.7298,0.7229,0.7229,0.7229,0.7229,0,0.6659,0.6705,0.6733,0.6798,0.6833,0.6877,0.692,0.6951,0.697,0.7002,0.7062,0.7109,0.7167,0.7185,0.7204,0.7257,0.7254,0.7259,0.7255,0.7279,0.7295,0.7302,0.7228,0.7228,0.7228,0.7228,0,0,0.6675,0.6759,0.6769,0.6799,0.6862,0.6899,0.6946,0.7002,0.7028,0.7074,0.7115,0.7184,0.7189,0.7223,0.7247,0.7276,0.7309,0.7278,0.728,0.7282,0.7371,0.7366,0.7373,0.7319,0.7321,0.7322,0.7366,0,0.6713,0.6795,0.6829,0.6896,0.694,0.6967,0.7008,0.7051,0.7082,0.7125,0.7159,0.7207,0.721,0.7231,0.7261,0.7299,0.7327,0.7296,0.7358,0.736,0.7343,0.7381,0.7377,0.7416,0.7373,0.7374,0.7374,0,0.6767,0.6813,0.6885,0.6944,0.6964,0.6999,0.7054,0.7094,0.7145,0.7165,0.7203,0.7226,0.7277,0.727,0.734,0.7318,0.7346,0.7368,0.7371,0.7378,0.7368,0.7389,0.743,0.7436,0.7384,0.7384,0.7383,0,0.6772,0.6853,0.6906,0.6931,0.7001,0.7026,0.7056,0.7106,0.7138,0.7186,0.7207,0.726,0.729,0.7331,0.7368,0.7359,0.7436,0.7431,0.7455,0.7454,0.7469,0.7468,0.7515,0.7487,0.7487,0.7487,0.7487,0,0.681,0.6853,0.691,0.6943,0.6992,0.703,0.7078,0.7111,0.7155,0.7196,0.7222,0.726,0.7306,0.735,0.738,0.7434,0.7447,0.7466,0.7473,0.7464,0.7461,0.7482,0.748,0.7488,0.7488,0.7488,0.7487,0,0.6824,0.6864,0.6924,0.6985,0.7002,0.7035,0.7088,0.7122,0.7154,0.7205,0.7219,0.727,0.7323,0.7364,0.7434,0.7454,0.7511,0.7519,0.7494,0.7498,0.7519,0.7517,0.7581,0.7592,0.7556,0.7557,0.7557,0,0.6846,0.688,0.6945,0.6973,0.7003,0.7049,0.7082,0.7121,0.7154,0.7215,0.7241,0.7296,0.7342,0.7426,0.747,0.7523,0.7533,0.7552,0.7541,0.753,0.7534,0.7531,0.7535,0.7553,0.7553,0.7553,0.7553,0,0.6881,0.6899,0.6944,0.6997,0.7035,0.7078,0.7122,0.7144,0.7192,0.7228,0.7282,0.7318,0.7389,0.7443,0.7501,0.7534,0.7552,0.7557,0.7565,0.7555,0.7539,0.7549,0.7498,0.7555,0.7555,0.7555,0.7555,0.7554,0.69,0.6931,0.6982,0.7032,0.7069,0.7109,0.7144,0.7181,0.7226,0.7286,0.7307,0.7364,0.7415,0.7494,0.7528,0.7573,0.7574,0.7585,0.7589,0.7591,0.759,0.7532,0.7584,0.7584,0.7584,0.7584,0.7584,0,0.6936,0.697,0.7015,0.7076,0.7116,0.7129,0.7178,0.7211,0.726,0.7305,0.735,0.7413,0.7466,0.7515,0.757,0.7597,0.7607,0.7611,0.7609,0.7616,0.7586,0.7573,0.7602,0.7602,0.7602,0.7602,0.7602,0.7602,0.6959,0.7013,0.7037,0.711,0.7144,0.7199,0.7226,0.7264,0.7301,0.737,0.7414,0.7445,0.7492,0.7552,0.7601,0.7614,0.7634,0.7635,0.765,0.7621,0.7618,0.7616,0.7605,0.7639,0.7639,0.7677,0.7677,0.7678]}]]